Regional Weather Roundup
Issued by NWS

Home | Current Version | Previous Version | Graphics & Text | Print | Product List | Glossary On
Versions: 1 2 3 4 5 6 7 8 9 10 11 12 13 14 15 16 17 18 19 20 21 22 23 24 25 26 27 28 29 30 31 32 33 34 35 36 37 38 39 40 41 42 43 44 45 46 47 48 49 50
000
ASUS43 KIND 110009
RWRIN

WEATHER ROUNDUP FOR INDIANA
NATIONAL WEATHER SERVICE INDIANAPOLIS IN
700 PM EST SAT DEC 10 2016

NOTE: "FAIR" INDICATES FEW OR NO CLOUDS BELOW 12,000 FEET WITH NO
SIGNIFICANT WEATHER AND/OR OBSTRUCTIONS TO VISIBILITY.

* - STATION DOES NOT REPORT WEATHER SUCH AS PRECIPITATION OR FOG.

+ - STATION NOT QUALITY CONTROLLED BY THE NATIONAL WEATHER SERVICE.
    USE DATA WITH CAUTION...ESPECIALLY DEWPOINT AND RELATIVE
    HUMIDITY OBSERVATIONS.

INZ001>003-010>013-019-020-110100-
NORTHWEST INDIANA

CITY           SKY/WX    TMP DP  RH WIND       PRES   REMARKS
GARY /AIRPORT/ LGT SNOW  25  21  86 CALM      30.43F
KNOX *+        CLOUDY    27   0  31 SW8       30.42F WCI  18
LA PORTE +     LGT SNOW  23  18  81 SW5       30.42S WCI  17
6HR MIN TEMP:  23; 6HR MAX TEMP:  24;

MICHIGAN CITY+ LGT SNOW  23  19  86 SW5       30.43S WCI  17
MONTICELLO +   FLURRIES  25  15  66 SW7       30.43S WCI  17
6HR MIN TEMP:  25; 6HR MAX TEMP:  28;

RENSSELAER +   LGT SNOW  27  23  86 S3        30.43S
VALPARAISO     LGT SNOW  24  17  74 SW7       30.41F WCI  16
6HR MIN TEMP:  24; 6HR MAX TEMP:  26; 6HR PCP: TRACE;


$$

LMZ046-743>745-110100-
SOUTHERN LAKE MICHIGAN

STATION/POSITION TIME  TEMP    WIND        PRES    WAVE
                       AIR SEA DIR/SP/G            HT
                 (UTC) (F)     (DEG/KT/KT) (MB)    (FT)

$$

INZ004-005-014>016-021>024-110100-
NORTH CENTRAL INDIANA

CITY           SKY/WX    TMP DP  RH WIND       PRES   REMARKS
GOSHEN         CLOUDY    25  13  60 S3        30.41F
6HR MIN TEMP:  24; 6HR MAX TEMP:  27;

LOGANSPORT +   LGT SNOW  25  21  86 S5        30.44S WCI  19
PERU/GRISSOM   FLURRIES  25  21  86 SW5       30.41S WCI  19
6HR MIN TEMP:  25; 6HR MAX TEMP:  28; 6HR PCP: TRACE;

ROCHESTER +    CLOUDY    28  21  74 SW8       30.43S WCI  20
SOUTH BEND     CLOUDY    23  14  68 SW5       30.42S WCI  17
6HR MIN TEMP:  22; 6HR MAX TEMP:  23; 6HR PCP: TRACE;

WARSAW +       CLOUDY    27  12  54 SW5       30.42S WCI  21

$$

INZ006>009-017-018-025>027-110100-
NORTHEAST INDIANA

CITY           SKY/WX    TMP DP  RH WIND       PRES   REMARKS
ANGOLA *+      CLEAR     23  16  74 S3        30.39F
AUBURN +       CLOUDY    27  18  69 CALM      30.42F
FORT WAYNE     CLOUDY    25  16  68 S3        30.43F
6HR MIN TEMP:  25; 6HR MAX TEMP:  27; 6HR PCP: TRACE;

HUNTINGTON +   MOCLDY    25  15  65 CALM      30.42S
6HR MIN TEMP:  25; 6HR MAX TEMP:  26;

KENDALLVILLE + CLOUDY    24  15  68 SW5       30.40F WCI  18

$$

INZ028-029-035-036-043>045-051>053-110100-
WEST CENTRAL INDIANA

CITY           SKY/WX    TMP DP  RH WIND       PRES   REMARKS
CRAWFORDSVL +  LGT SNOW  24  21  87 SE3       30.42F
6HR MIN TEMP:  24; 6HR MAX TEMP:  26;

GREENCASTLE +  CLOUDY    28  21  74 S7        30.42F WCI  21
LAFAYETTE      LGT SNOW  24  19  81 S3        30.43F
6HR MIN TEMP:  24; 6HR MAX TEMP:  27; 6HR PCP: TRACE;

TERRE HAUTE    CLOUDY    28  18  66 SE8       30.43F WCI  20
6HR MIN TEMP:  27; 6HR MAX TEMP:  29;


$$

INZ030>032-037>040-046>048-054>057-064-065-110100-
CENTRAL INDIANA

CITY           SKY/WX    TMP DP  RH WIND       PRES   REMARKS
CP ATTERBURY + CLOUDY    30  19  64 S5        30.46S WCI  25
COLUMBUS       MOCLDY    28  19  69 S6        30.47R WCI  22
FRANKFORT +    LGT SNOW  28  22  79 S5        30.43F WCI  23
6HR MIN TEMP:  28; 6HR MAX TEMP:  31;

GREENWOOD *+   CLOUDY    29  19  65 SW6       30.45S WCI  23
6HR MIN TEMP:  28; 6HR MAX TEMP:  31;

INDIANAPOLIS   CLOUDY    28  17  63 S7        30.42F WCI  21
6HR MIN TEMP:  27; 6HR MAX TEMP:  29;

-EAGLE CREEK   CLOUDY    28  17  63 S7        30.43S WCI  21
6HR MIN TEMP:  27; 6HR MAX TEMP:  29;

KOKOMO +       FLURRIES  25  20  81 SW7       30.43F WCI  17
6HR MIN TEMP:  25; 6HR MAX TEMP:  28; 6HR PCP: TRACE;

MARION +       CLOUDY    26  18  73 SW8       30.44R WCI  17
MT COMFORT *+  CLOUDY    27  18  69 S6        30.44S WCI  20
SHELBYVILLE    CLOUDY    28  17  63 S7        30.44S WCI  21
6HR MIN TEMP:  28; 6HR MAX TEMP:  30;

ZIONSVILLE +   LGT SNOW  26  20  77 SW6       30.43S WCI  19
6HR MIN TEMP:  25; 6HR MAX TEMP:  27;


$$

INZ033-034-041-042-049-050-058-059-110100-
EAST CENTRAL INDIANA

CITY           SKY/WX    TMP DP  RH WIND       PRES   REMARKS
MUNCIE         CLOUDY    28  15  58 SW8       30.43S WCI  20
6HR MIN TEMP:  26; 6HR MAX TEMP:  29;


$$

INZ060-061-067>069-081>083-085>088-110100-
SOUTHWEST INDIANA

CITY           SKY/WX    TMP DP  RH WIND       PRES   REMARKS
EVANSVILLE     CLOUDY    30  17  58 SE3       30.44F
6HR MIN TEMP:  30; 6HR MAX TEMP:  36;

HUNTINGBURG *+ CLEAR     26  18  71 SE5       30.45F WCI  20
6HR MIN TEMP:  25; 6HR MAX TEMP:  35;

WASHINGTON +   MOCLDY    30  22  71 SE6       30.43F WCI  24
6HR MIN TEMP:  28; 6HR MAX TEMP:  31;


$$

INZ062-063-066-070>080-084-089>092-110100-
SOUTH CENTRAL AND SOUTHEAST INDIANA

CITY           SKY/WX    TMP DP  RH WIND       PRES   REMARKS
BLOOMINGTON    CLOUDY    28  16  60 SE6       30.43F WCI  22
6HR MIN TEMP:  26; 6HR MAX TEMP:  29;

MADISON *+     CLOUDY    30  16  55 CALM      30.48R
NORTH VERNON + CLOUDY    30  23  74 CALM      30.46S
SEYMOUR +      CLOUDY    30  18  59 CALM      30.47S

$$





USA.gov is the U.S. government's official web portal to all federal, state and local government web resources and services.